| time (UTC) | temp C | wind direction | speed KPH | gust KPH | rain 1hr cm | rain 24hr cm | rain mn cm | humidity % | barometer mb |
| 20260507054513 | 17 | 18 | 3.2 | 6.4 | 0.00 | 0.00 | 0.00 | 73 | 1011.5 |
| 20260507054013 | 17 | 245 | 1.6 | 3.2 | 0.00 | 0.00 | 0.00 | 76 | 1011.5 |
| 20260507053509 | 17 | 315 | 6.4 | 11.3 | 0.00 | 0.00 | 0.00 | 75 | 1011.5 |
| 20260507053022 | 17 | 308 | 3.2 | 6.4 | 0.00 | 0.00 | 0.00 | 75 | 1011.5 |
| 20260507052509 | 17 | 44 | 4.8 | 6.4 | 0.00 | 0.00 | 0.00 | 75 | 1011.9 |
| 20260507052013 | 17 | 37 | 4.8 | 6.4 | 0.00 | 0.00 | 0.00 | 75 | 1011.5 |
| 20260507051513 | 17 | 72 | 8.0 | 11.3 | 0.00 | 0.00 | 0.00 | 75 | 1011.5 |
| 20260507051013 | 17 | 57 | 3.2 | 6.4 | 0.00 | 0.00 | 0.00 | 76 | 1011.5 |
| 20260507050510 | 17 | 9 | 1.6 | 3.2 | 0.00 | 0.00 | 0.00 | 75 | 1011.2 |
| 20260507050032 | 17 | 157 | 3.2 | 3.2 | 0.00 | 0.00 | 0.00 | 76 | 1011.5 |
| 20260507045510 | 17 | 356 | 3.2 | 4.8 | 0.00 | 0.00 | 0.00 | 76 | 1011.2 |
| 20260507045012 | 17 | 320 | 9.7 | 11.3 | 0.00 | 0.00 | 0.00 | 76 | 1011.2 |
| 20260507044513 | 17 | 311 | 1.6 | 3.2 | 0.00 | 0.00 | 0.00 | 77 | 1011.2 |
| 20260507044013 | 17 | 348 | 3.2 | 6.4 | 0.00 | 0.00 | 0.00 | 77 | 1011.2 |
| 20260507043509 | 17 | 234 | 4.8 | 6.4 | 0.00 | 0.00 | 0.00 | 77 | 1011.2 |
| 20260507043022 | 17 | 38 | 6.4 | 8.0 | 0.00 | 0.00 | 0.00 | 77 | 1011.2 |
| 20260507042509 | 17 | 300 | 6.4 | 6.4 | 0.00 | 0.00 | 0.00 | 77 | 1011.2 |
| 20260507042013 | 17 | 275 | 6.4 | 11.3 | 0.00 | 0.00 | 0.00 | 78 | 1011.2 |
| 20260507041513 | 17 | 291 | 9.7 | 11.3 | 0.00 | 0.00 | 0.00 | 77 | 1011.2 |
| 20260507041013 | 17 | 329 | 9.7 | 14.5 | 0.00 | 0.00 | 0.00 | 76 | 1011.2 |
| 20260507040509 | 17 | 347 | 9.7 | 11.3 | 0.00 | 0.00 | 0.00 | 77 | 1011.2 |
| 20260507040031 | 17 | 0 | 11.3 | 14.5 | 0.00 | 0.00 | 0.00 | 78 | 1011.2 |
| 20260507035510 | 17 | 267 | 6.4 | 8.0 | 0.00 | 0.00 | 0.00 | 78 | 1011.2 |
| 20260507035013 | 17 | 135 | 3.2 | 4.8 | 0.00 | 0.00 | 0.00 | 78 | 1010.8 |
| 20260507034014 | 17 | 334 | 11.3 | 14.5 | 0.00 | 0.00 | 0.00 | 78 | 1011.2 |
| 20260507033509 | 17 | 344 | 16.1 | 19.3 | 0.00 | 0.00 | 0.00 | 78 | 1011.2 |
| 20260507033022 | 16 | 337 | 12.9 | 14.5 | 0.00 | 0.00 | 0.00 | 79 | 1011.2 |
| 20260507032512 | 16 | 332 | 16.1 | 19.3 | 0.00 | 0.00 | 0.00 | 81 | 1010.8 |
| 20260507032013 | 16 | 130 | 3.2 | 4.8 | 0.00 | 0.00 | 0.00 | 84 | 1011.2 |
| 20260507031513 | 16 | 329 | 3.2 | 4.8 | 0.00 | 0.00 | 0.00 | 86 | 1010.8 |
| 20260507031013 | 16 | 135 | 1.6 | 3.2 | 0.00 | 0.00 | 0.00 | 86 | 1010.8 |
| 20260507030509 | 16 | 99 | 3.2 | 3.2 | 0.00 | 0.00 | 0.00 | 86 | 1011.2 |
| 20260507030034 | 16 | 33 | 12.9 | 14.5 | 0.00 | 0.00 | 0.00 | 86 | 1011.2 |
| 20260507025509 | 16 | 281 | 4.8 | 6.4 | 0.00 | 0.00 | 0.00 | 86 | 1011.2 |
| 20260507025012 | 16 | 19 | 3.2 | 3.2 | 0.00 | 0.00 | 0.00 | 86 | 1011.2 |
| 20260507024513 | 16 | 6 | 6.4 | 8.0 | 0.00 | 0.00 | 0.00 | 86 | 1010.8 |
| 20260507024013 | 16 | 28 | 4.8 | 6.4 | 0.00 | 0.00 | 0.00 | 86 | 1011.2 |
| 20260507023509 | 16 | 343 | 4.8 | 6.4 | 0.00 | 0.00 | 0.00 | 86 | 1011.2 |
| 20260507023022 | 16 | 9 | 4.8 | 6.4 | 0.00 | 0.00 | 0.00 | 86 | 1010.8 |
| 20260507022510 | 16 | 309 | 6.4 | 8.0 | 0.00 | 0.00 | 0.00 | 86 | 1011.2 |
| 20260507022013 | 16 | 23 | 3.2 | 3.2 | 0.00 | 0.00 | 0.00 | 86 | 1011.2 |
| 20260507021514 | 16 | 286 | 4.8 | 6.4 | 0.00 | 0.00 | 0.00 | 86 | 1011.2 |
| 20260507021013 | 16 | 347 | 6.4 | 14.5 | 0.00 | 0.00 | 0.00 | 86 | 1011.2 |
| 20260507020509 | 16 | 354 | 8.0 | 11.3 | 0.00 | 0.00 | 0.00 | 85 | 1011.2 |
| 20260507020031 | 16 | 85 | 8.0 | 9.7 | 0.00 | 0.00 | 0.00 | 85 | 1010.8 |
| 20260507015509 | 16 | 107 | 6.4 | 8.0 | 0.00 | 0.00 | 0.00 | 85 | 1010.8 |
| 20260507015013 | 16 | 289 | 1.6 | 1.6 | 0.00 | 0.00 | 0.00 | 85 | 1010.8 |
| 20260507014512 | 16 | 178 | 1.6 | 3.2 | 0.00 | 0.00 | 0.00 | 85 | 1010.8 |
| 20260507014014 | 16 | 181 | 0.0 | 1.6 | 0.00 | 0.00 | 0.00 | 85 | 1010.8 |
| 20260507013509 | 16 | 0 | 6.4 | 8.0 | 0.00 | 0.00 | 0.00 | 84 | 1010.8 |
| 20260507013022 | 16 | 144 | 3.2 | 3.2 | 0.00 | 0.00 | 0.00 | 84 | 1011.2 |
| 20260507012509 | 16 | 25 | 3.2 | 3.2 | 0.00 | 0.00 | 0.00 | 84 | 1010.8 |
| 20260507012014 | 16 | 264 | 3.2 | 4.8 | 0.00 | 0.00 | 0.00 | 83 | 1010.8 |
| 20260507011513 | 16 | 353 | 3.2 | 6.4 | 0.00 | 0.00 | 0.00 | 83 | 1010.8 |
| 20260507011013 | 16 | 132 | 1.6 | 3.2 | 0.00 | 0.00 | 0.00 | 83 | 1010.8 |
| 20260507010509 | 16 | 45 | 4.8 | 6.4 | 0.00 | 0.00 | 0.00 | 82 | 1010.8 |
| 20260507010031 | 16 | 96 | 3.2 | 4.8 | 0.00 | 0.00 | 0.00 | 82 | 1010.8 |
| 20260507005509 | 16 | 156 | 3.2 | 4.8 | 0.00 | 0.00 | 0.00 | 82 | 1010.8 |
| 20260507005013 | 16 | 38 | 4.8 | 6.4 | 0.00 | 0.00 | 0.00 | 82 | 1010.8 |
| 20260507004512 | 16 | 87 | 4.8 | 9.7 | 0.00 | 0.00 | 0.00 | 81 | 1011.2 |
| 20260507004013 | 16 | 42 | 9.7 | 12.9 | 0.00 | 0.00 | 0.00 | 81 | 1010.8 |
| 20260507003509 | 16 | 342 | 9.7 | 14.5 | 0.00 | 0.00 | 0.00 | 82 | 1010.8 |
| 20260507003022 | 16 | 354 | 1.6 | 3.2 | 0.00 | 0.00 | 0.00 | 82 | 1010.8 |
| 20260507002509 | 16 | 46 | 6.4 | 9.7 | 0.00 | 0.00 | 0.00 | 82 | 1011.2 |
| 20260507002013 | 16 | 71 | 6.4 | 14.5 | 0.00 | 0.00 | 0.00 | 82 | 1010.5 |
| 20260507001513 | 16 | 131 | 9.7 | 14.5 | 0.00 | 0.00 | 0.00 | 82 | 1010.5 |
| 20260507001013 | 17 | 110 | 3.2 | 6.4 | 0.00 | 0.00 | 0.00 | 82 | 1010.8 |
| 20260507000510 | 17 | 123 | 6.4 | 8.0 | 0.00 | 0.00 | 0.00 | 83 | 1010.8 |
| 20260507000034 | 16 | 109 | 9.7 | 11.3 | 0.00 | 0.00 | 0.00 | 83 | 1010.8 |
| 20260506235510 | 16 | 9 | 3.2 | 6.4 | 0.00 | 0.00 | 0.00 | 83 | 1010.8 |
| 20260506235014 | 16 | 66 | 12.9 | 14.5 | 0.00 | 0.00 | 0.00 | 83 | 1010.8 |
| 20260506234514 | 16 | 287 | 1.6 | 3.2 | 0.00 | 0.00 | 0.00 | 84 | 1010.5 |
| 20260506234012 | 16 | 122 | 1.6 | 4.8 | 0.00 | 0.00 | 0.00 | 86 | 1010.5 |
| 20260506233510 | 16 | 315 | 3.2 | 6.4 | 0.00 | 0.00 | 0.00 | 89 | 1010.5 |
| 20260506233023 | 16 | 233 | 12.9 | 14.5 | 0.00 | 0.00 | 0.00 | 90 | 1010.5 |
| 20260506232509 | 17 | 337 | 4.8 | 6.4 | 0.00 | 0.00 | 0.00 | 91 | 1010.5 |
| 20260506232013 | 17 | 305 | 3.2 | 3.2 | 0.00 | 0.00 | 0.00 | 91 | 1010.5 |
| 20260506231512 | 17 | 297 | 4.8 | 6.4 | 0.00 | 0.00 | 0.00 | 91 | 1010.5 |
| 20260506231013 | 17 | 352 | 4.8 | 6.4 | 0.00 | 0.00 | 0.00 | 91 | 1010.2 |
| 20260506230509 | 17 | 232 | 1.6 | 3.2 | 0.00 | 0.00 | 0.00 | 90 | 1010.2 |
| 20260506230032 | 17 | 178 | 0.0 | 1.6 | 0.00 | 0.00 | 0.00 | 90 | 1010.2 |
| 20260506225510 | 17 | 137 | 3.2 | 3.2 | 0.00 | 0.00 | 0.00 | 90 | 1010.2 |
| 20260506225013 | 17 | 132 | 1.6 | 3.2 | 0.00 | 0.00 | 0.00 | 90 | 1010.2 |
| 20260506224512 | 17 | 160 | 1.6 | 3.2 | 0.00 | 0.00 | 0.00 | 90 | 1010.2 |
| 20260506224015 | 17 | 145 | 1.6 | 3.2 | 0.00 | 0.00 | 0.00 | 90 | 1010.2 |
| 20260506223023 | 17 | 159 | 1.6 | 3.2 | 0.00 | 0.00 | 0.00 | 90 | 1010.2 |
| 20260506222509 | 17 | 168 | 0.0 | 3.2 | 0.00 | 0.00 | 0.00 | 90 | 1010.2 |
| 20260506222014 | 17 | 153 | 1.6 | 3.2 | 0.00 | 0.00 | 0.00 | 90 | 1010.2 |
| 20260506221513 | 17 | 32 | 1.6 | 1.6 | 0.00 | 0.00 | 0.00 | 90 | 1010.5 |
| 20260506220033 | 17 | 200 | 1.6 | 1.6 | 0.00 | 21.74 | 21.74 | 90 | 1010.2 |
| 20260506215510 | 17 | 148 | 6.4 | 8.0 | 0.00 | 21.74 | 21.74 | 90 | 1010.5 |
| 20260506215012 | 17 | 58 | 3.2 | 4.8 | 0.00 | 21.74 | 21.74 | 90 | 1010.5 |
| 20260506214514 | 17 | 166 | 3.2 | 6.4 | 0.00 | 21.74 | 21.74 | 90 | 1010.2 |
| 20260506214013 | 17 | 175 | 1.6 | 3.2 | 0.00 | 21.74 | 21.74 | 90 | 1010.2 |
| 20260506213511 | 17 | 145 | 1.6 | 3.2 | 0.00 | 21.74 | 21.74 | 90 | 1010.2 |
| 20260506213023 | 17 | 108 | 8.0 | 11.3 | 0.00 | 21.74 | 21.74 | 90 | 1010.5 |
| 20260506212509 | 17 | 126 | 6.4 | 8.0 | 0.00 | 21.74 | 21.74 | 91 | 1010.5 |
| 20260506212013 | 17 | 151 | 6.4 | 6.4 | 0.00 | 21.74 | 21.74 | 91 | 1010.5 |
| 20260506211512 | 17 | 165 | 6.4 | 8.0 | 0.00 | 21.74 | 21.74 | 91 | 1010.5 |
| 20260506211013 | 17 | 148 | 6.4 | 8.0 | 0.00 | 21.74 | 21.74 | 91 | 1010.5 |
| 20260506210510 | 17 | 156 | 3.2 | 6.4 | 0.00 | 21.74 | 21.74 | 91 | 1010.2 |
| 20260506205516 | 17 | 144 | 9.7 | 11.3 | 0.00 | 21.74 | 21.74 | 91 | 1010.5 |
| 20260506205013 | 17 | 131 | 6.4 | 8.0 | 0.00 | 21.74 | 21.74 | 91 | 1010.5 |
| 20260506204513 | 17 | 136 | 3.2 | 4.8 | 0.00 | 21.74 | 21.74 | 91 | 1010.5 |
| 20260506203510 | 17 | 203 | 6.4 | 6.4 | 0.00 | 21.74 | 21.74 | 91 | 1010.5 |
| 20260506203023 | 17 | 163 | 9.7 | 11.3 | 0.00 | 21.74 | 21.74 | 91 | 1010.5 |
| 20260506202509 | 17 | 131 | 11.3 | 14.5 | 0.00 | 21.74 | 21.74 | 91 | 1010.2 |
| 20260506202012 | 17 | 162 | 3.2 | 6.4 | 0.00 | 21.74 | 21.74 | 92 | 1010.5 |
| 20260506201513 | 17 | 157 | 6.4 | 8.0 | 0.00 | 21.74 | 21.74 | 92 | 1010.2 |
| 20260506201020 | 17 | 130 | 9.7 | 11.3 | 0.00 | 21.74 | 21.74 | 92 | 1010.2 |
| 20260506200031 | 17 | 145 | 3.2 | 6.4 | 0.00 | 21.74 | 21.74 | 92 | 1010.2 |
| 20260506195013 | 17 | 117 | 11.3 | 12.9 | 0.00 | 21.74 | 21.74 | 92 | 1009.8 |
| 20260506194512 | 17 | 110 | 6.4 | 8.0 | 0.00 | 21.74 | 21.74 | 92 | 1009.5 |
| 20260506194014 | 17 | 103 | 4.8 | 6.4 | 0.00 | 21.74 | 21.74 | 92 | 1009.8 |
| 20260506193510 | 17 | 337 | 6.4 | 9.7 | 0.00 | 21.74 | 21.74 | 91 | 1009.8 |
| 20260506193024 | 17 | 153 | 3.2 | 6.4 | 0.00 | 21.74 | 21.74 | 91 | 1009.8 |
| 20260506192510 | 17 | 142 | 4.8 | 6.4 | 0.00 | 21.74 | 21.74 | 91 | 1009.5 |
| 20260506192013 | 17 | 137 | 4.8 | 6.4 | 0.00 | 21.74 | 21.74 | 91 | 1009.5 |
| 20260506191512 | 17 | 151 | 11.3 | 14.5 | 0.00 | 21.74 | 21.74 | 91 | 1009.1 |
| 20260506191013 | 17 | 23 | 3.2 | 6.4 | 0.00 | 21.74 | 21.74 | 91 | 1009.5 |
| 20260506190509 | 17 | 315 | 4.8 | 6.4 | 0.00 | 21.74 | 21.74 | 91 | 1009.5 |
| 20260506190032 | 17 | 156 | 14.5 | 17.7 | 0.00 | 21.74 | 21.74 | 91 | 1009.1 |
| 20260506185509 | 17 | 159 | 11.3 | 17.7 | 0.00 | 21.74 | 21.74 | 91 | 1009.1 |
| 20260506184512 | 17 | 126 | 12.9 | 14.5 | 0.00 | 21.74 | 21.74 | 91 | 1009.1 |
| 20260506184013 | 17 | 136 | 9.7 | 14.5 | 0.00 | 21.74 | 21.74 | 91 | 1008.8 |
| 20260506183509 | 17 | 219 | 6.4 | 9.7 | 0.00 | 21.74 | 21.74 | 90 | 1009.1 |
| 20260506183024 | 17 | 154 | 12.9 | 20.9 | 0.00 | 21.74 | 21.74 | 90 | 1008.8 |
| 20260506182509 | 17 | 140 | 9.7 | 11.3 | 0.00 | 21.74 | 21.74 | 90 | 1008.8 |
| 20260506182015 | 17 | 130 | 8.0 | 8.0 | 0.00 | 21.74 | 21.74 | 90 | 1008.8 |
| 20260506181013 | 17 | 174 | 11.3 | 14.5 | 0.00 | 21.74 | 21.74 | 89 | 1008.8 |
| 20260506180509 | 17 | 153 | 8.0 | 9.7 | 0.00 | 21.74 | 21.74 | 89 | 1008.8 |
| 20260506180033 | 17 | 181 | 3.2 | 3.2 | 0.00 | 21.74 | 21.74 | 89 | 1008.8 |
| 20260506175013 | 17 | 90 | 9.7 | 11.3 | 0.00 | 21.74 | 21.74 | 89 | 1008.8 |
| 20260506174513 | 17 | 153 | 4.8 | 6.4 | 0.00 | 21.74 | 21.74 | 89 | 1008.8 |
| 20260506174013 | 17 | 105 | 16.1 | 19.3 | 0.00 | 21.74 | 21.74 | 89 | 1008.8 |
| 20260506173510 | 17 | 147 | 9.7 | 12.9 | 0.00 | 21.74 | 21.74 | 89 | 1008.5 |
| 20260506173023 | 17 | 158 | 9.7 | 11.3 | 0.00 | 21.74 | 21.74 | 89 | 1008.8 |
| 20260506172510 | 17 | 157 | 9.7 | 12.9 | 0.00 | 21.74 | 21.74 | 89 | 1008.5 |
| 20260506172013 | 17 | 153 | 12.9 | 14.5 | 0.00 | 21.74 | 21.74 | 89 | 1008.8 |
| 20260506171513 | 17 | 165 | 14.5 | 14.5 | 0.00 | 21.74 | 21.74 | 89 | 1008.8 |
| 20260506171015 | 17 | 192 | 8.0 | 11.3 | 0.00 | 21.74 | 21.74 | 89 | 1008.8 |
| 20260506170509 | 17 | 64 | 6.4 | 9.7 | 0.00 | 21.74 | 21.74 | 89 | 1008.8 |
| 20260506170034 | 17 | 144 | 8.0 | 11.3 | 0.00 | 21.74 | 21.74 | 89 | 1008.8 |
| 20260506165509 | 17 | 148 | 11.3 | 17.7 | 0.00 | 21.74 | 21.74 | 89 | 1008.8 |
| 20260506165014 | 18 | 132 | 14.5 | 19.3 | 0.00 | 21.74 | 21.74 | 89 | 1008.8 |
| 20260506164513 | 18 | 198 | 14.5 | 14.5 | 0.00 | 21.74 | 21.74 | 88 | 1008.8 |
| 20260506164014 | 18 | 152 | 9.7 | 17.7 | 0.00 | 21.74 | 21.74 | 88 | 1009.1 |
| 20260506163510 | 18 | 160 | 17.7 | 25.7 | 0.00 | 21.74 | 21.74 | 87 | 1008.8 |
| 20260506162510 | 18 | 167 | 11.3 | 17.7 | 0.00 | 21.74 | 21.74 | 86 | 1008.8 |
| 20260506162013 | 18 | 134 | 14.5 | 19.3 | 0.00 | 21.74 | 21.74 | 85 | 1008.8 |
| 20260506161513 | 18 | 171 | 14.5 | 17.7 | 0.00 | 21.74 | 21.74 | 85 | 1009.1 |
| 20260506161015 | 18 | 143 | 6.4 | 8.0 | 0.00 | 21.74 | 21.74 | 85 | 1009.1 |
| 20260506160509 | 18 | 137 | 11.3 | 12.9 | 0.00 | 21.74 | 21.74 | 85 | 1009.1 |
| 20260506160036 | 18 | 157 | 17.7 | 19.3 | 0.00 | 21.74 | 21.74 | 85 | 1009.1 |
| 20260506155510 | 18 | 145 | 12.9 | 14.5 | 0.00 | 21.74 | 21.74 | 85 | 1009.1 |
| 20260506155014 | 18 | 171 | 14.5 | 19.3 | 0.00 | 21.74 | 21.74 | 84 | 1009.1 |
| 20260506154512 | 18 | 135 | 12.9 | 19.3 | 0.00 | 21.74 | 21.74 | 84 | 1008.8 |
| 20260506154014 | 18 | 153 | 16.1 | 17.7 | 0.00 | 21.74 | 21.74 | 83 | 1009.1 |
| 20260506153510 | 18 | 132 | 11.3 | 19.3 | 0.00 | 21.74 | 21.74 | 82 | 1009.1 |
| 20260506153024 | 20 | 133 | 17.7 | 22.5 | 0.00 | 21.74 | 21.74 | 80 | 1009.1 |
| 20260506152013 | 21 | 77 | 6.4 | 11.3 | 0.00 | 21.74 | 21.74 | 78 | 1009.1 |
| 20260506151513 | 21 | 215 | 11.3 | 14.5 | 0.00 | 21.74 | 21.74 | 76 | 1008.8 |
| 20260506151014 | 21 | 187 | 9.7 | 14.5 | 0.00 | 21.74 | 21.74 | 77 | 1008.8 |
| 20260506150509 | 21 | 232 | 8.0 | 11.3 | 0.00 | 21.74 | 21.74 | 77 | 1009.1 |
| 20260506150034 | 21 | 212 | 11.3 | 17.7 | 0.00 | 21.74 | 21.74 | 77 | 1009.1 |
| 20260506145510 | 21 | 162 | 8.0 | 9.7 | 0.00 | 21.74 | 21.74 | 78 | 1008.8 |
| 20260506145013 | 21 | 213 | 8.0 | 11.3 | 0.00 | 21.74 | 21.74 | 79 | 1008.8 |
| 20260506144513 | 20 | 216 | 6.4 | 11.3 | 0.00 | 21.74 | 21.74 | 79 | 1009.1 |
| 20260506144014 | 20 | 176 | 12.9 | 17.7 | 0.00 | 21.74 | 21.74 | 79 | 1009.1 |
| 20260506143509 | 20 | 181 | 4.8 | 6.4 | 0.00 | 21.74 | 21.74 | 79 | 1009.1 |
| 20260506143024 | 21 | 127 | 3.2 | 6.4 | 0.00 | 21.74 | 21.74 | 78 | 1008.8 |
| 20260506142509 | 21 | 167 | 11.3 | 14.5 | 0.00 | 21.74 | 21.74 | 78 | 1008.8 |
| 20260506142013 | 20 | 111 | 9.7 | 12.9 | 0.00 | 21.74 | 21.74 | 79 | 1009.1 |
| 20260506141514 | 20 | 176 | 12.9 | 19.3 | 0.00 | 21.74 | 21.74 | 79 | 1009.1 |
| 20260506141014 | 20 | 244 | 11.3 | 19.3 | 0.00 | 21.74 | 21.74 | 79 | 1009.1 |
| 20260506140509 | 20 | 234 | 12.9 | 17.7 | 0.00 | 21.74 | 21.74 | 79 | 1009.1 |
| 20260506140034 | 20 | 230 | 17.7 | 27.4 | 0.00 | 21.74 | 21.74 | 79 | 1009.1 |
| 20260506135509 | 20 | 187 | 8.0 | 14.5 | 0.00 | 21.74 | 21.74 | 79 | 1008.8 |
| 20260506135013 | 20 | 74 | 14.5 | 17.7 | 0.00 | 21.74 | 21.74 | 78 | 1009.1 |
| 20260506134014 | 20 | 184 | 11.3 | 14.5 | 0.00 | 21.74 | 21.74 | 78 | 1009.1 |
| 20260506133510 | 21 | 157 | 3.2 | 4.8 | 0.00 | 21.74 | 21.74 | 79 | 1009.1 |
| 20260506133024 | 20 | 158 | 12.9 | 19.3 | 0.00 | 21.74 | 21.74 | 79 | 1009.1 |
| 20260506132509 | 20 | 316 | 6.4 | 11.3 | 0.00 | 21.74 | 21.74 | 80 | 1008.8 |
| 20260506132013 | 20 | 121 | 14.5 | 19.3 | 0.00 | 21.74 | 21.74 | 80 | 1009.1 |
| 20260506131514 | 20 | 147 | 22.5 | 27.4 | 0.00 | 21.74 | 21.74 | 79 | 1009.1 |
| 20260506131014 | 21 | 134 | 9.7 | 14.5 | 0.00 | 21.74 | 21.74 | 79 | 1008.8 |
| 20260506130509 | 21 | 137 | 9.7 | 12.9 | 0.00 | 21.74 | 21.74 | 79 | 1009.1 |
| 20260506130034 | 21 | 192 | 9.7 | 12.9 | 0.00 | 21.74 | 21.74 | 80 | 1009.1 |
| 20260506125509 | 21 | 305 | 14.5 | 17.7 | 0.00 | 21.74 | 21.74 | 81 | 1009.1 |
| 20260506125015 | 20 | 158 | 9.7 | 14.5 | 0.00 | 21.74 | 21.74 | 81 | 1009.5 |
| 20260506124513 | 20 | 114 | 11.3 | 14.5 | 0.00 | 21.74 | 21.74 | 81 | 1009.5 |
| 20260506124013 | 20 | 180 | 4.8 | 6.4 | 0.00 | 21.74 | 21.74 | 82 | 1009.1 |
| 20260506123509 | 20 | 119 | 6.4 | 8.0 | 0.00 | 21.74 | 21.74 | 82 | 1009.1 |
| 20260506123024 | 20 | 155 | 9.7 | 14.5 | 0.00 | 21.74 | 21.74 | 83 | 1009.1 |
| 20260506122509 | 20 | 182 | 11.3 | 14.5 | 0.00 | 21.74 | 21.74 | 83 | 1009.1 |
| 20260506122014 | 20 | 140 | 19.3 | 22.5 | 0.00 | 21.74 | 21.74 | 83 | 1009.1 |
| 20260506121512 | 20 | 150 | 12.9 | 19.3 | 0.00 | 21.74 | 21.74 | 84 | 1009.1 |
| 20260506121013 | 20 | 71 | 22.5 | 35.4 | 0.00 | 21.74 | 21.74 | 83 | 1009.5 |
| 20260506120510 | 20 | 171 | 19.3 | 22.5 | 0.00 | 21.74 | 21.74 | 84 | 1009.5 |
| 20260506120034 | 20 | 216 | 17.7 | 24.1 | 0.25 | 21.74 | 21.74 | 84 | 1009.5 |
| 20260506115509 | 20 | 180 | 14.5 | 19.3 | 0.25 | 21.74 | 21.74 | 83 | 1009.5 |
| 20260506115013 | 20 | 165 | 14.5 | 25.7 | 0.25 | 21.74 | 21.74 | 84 | 1009.5 |
| 20260506114513 | 20 | 146 | 14.5 | 17.7 | 0.25 | 21.74 | 21.74 | 85 | 1009.1 |
| 20260506114014 | 20 | 163 | 12.9 | 19.3 | 0.25 | 21.74 | 21.74 | 85 | 1009.5 |
| 20260506113509 | 20 | 151 | 19.3 | 25.7 | 0.25 | 21.74 | 21.74 | 84 | 1009.5 |
| 20260506113023 | 20 | 218 | 12.9 | 14.5 | 0.25 | 21.74 | 21.74 | 84 | 1009.1 |
| 20260506112509 | 20 | 178 | 6.4 | 11.3 | 0.25 | 21.74 | 21.74 | 85 | 1009.5 |
| 20260506112013 | 18 | 146 | 27.4 | 32.2 | 0.25 | 21.74 | 21.74 | 84 | 1009.1 |
| 20260506111513 | 20 | 112 | 19.3 | 27.4 | 0.23 | 21.74 | 21.74 | 83 | 1009.1 |
| 20260506111013 | 18 | 178 | 14.5 | 19.3 | 0.23 | 21.74 | 21.74 | 84 | 1009.1 |
| 20260506110509 | 18 | 208 | 19.3 | 35.4 | 0.00 | 21.51 | 21.51 | 84 | 1009.1 |
| 20260506110033 | 18 | 71 | 22.5 | 35.4 | 0.43 | 21.51 | 21.51 | 85 | 1009.1 |
| 20260506105509 | 18 | 174 | 22.5 | 33.8 | 0.43 | 21.51 | 21.51 | 85 | 1009.1 |
| 20260506105013 | 18 | 144 | 19.3 | 33.8 | 0.38 | 21.49 | 21.49 | 86 | 1009.1 |
| 20260506104513 | 20 | 161 | 20.9 | 30.6 | 0.38 | 21.49 | 21.49 | 86 | 1009.1 |
| 20260506104013 | 20 | 172 | 22.5 | 27.4 | 0.23 | 21.31 | 21.31 | 85 | 1009.1 |
| 20260506103509 | 18 | 126 | 8.0 | 11.3 | 0.23 | 21.31 | 21.31 | 86 | 1009.5 |
| 20260506103023 | 20 | 189 | 19.3 | 25.7 | 0.23 | 21.31 | 21.31 | 85 | 1009.5 |
| 20260506102509 | 18 | 150 | 9.7 | 14.5 | 0.20 | 21.29 | 21.29 | 86 | 1009.5 |
| 20260506102013 | 20 | 129 | 19.3 | 22.5 | 0.13 | 21.21 | 21.21 | 85 | 1009.5 |
| 20260506101513 | 20 | 176 | 17.7 | 19.3 | 0.13 | 21.21 | 21.21 | 85 | 1009.5 |
| 20260506101013 | 18 | 277 | 25.7 | 30.6 | 0.10 | 21.18 | 21.18 | 86 | 1009.5 |
| 20260506100509 | 20 | 103 | 3.2 | 6.4 | 0.00 | 21.08 | 21.08 | 87 | 1009.1 |
| 20260506100035 | 18 | 116 | 25.7 | 30.6 | 0.05 | 21.08 | 21.08 | 88 | 1009.5 |
| 20260506095510 | 18 | 111 | 16.1 | 19.3 | 0.03 | 21.06 | 21.06 | 89 | 1009.5 |
| 20260506095013 | 18 | 238 | 20.9 | 30.6 | 0.03 | 21.06 | 21.06 | 89 | 1009.5 |
| 20260506094513 | 18 | 168 | 12.9 | 17.7 | 0.03 | 21.06 | 21.06 | 90 | 1009.5 |
| 20260506094014 | 18 | 180 | 19.3 | 25.7 | 0.00 | 21.03 | 21.03 | 90 | 1009.5 |
| 20260506093509 | 18 | 192 | 9.7 | 12.9 | 0.00 | 21.03 | 21.03 | 90 | 1009.1 |
| 20260506093024 | 18 | 129 | 19.3 | 30.6 | 0.00 | 21.03 | 21.03 | 89 | 1009.5 |
| 20260506092509 | 18 | 159 | 16.1 | 25.7 | 0.00 | 21.03 | 21.03 | 89 | 1009.1 |
| 20260506092013 | 18 | 178 | 17.7 | 24.1 | 0.00 | 21.03 | 21.03 | 89 | 1009.1 |
| 20260506091513 | 18 | 188 | 14.5 | 17.7 | 0.00 | 21.03 | 21.03 | 89 | 1009.1 |
| 20260506091013 | 18 | 189 | 19.3 | 25.7 | 0.00 | 21.03 | 21.03 | 89 | 1009.1 |
| 20260506090509 | 18 | 157 | 22.5 | 27.4 | 0.00 | 21.03 | 21.03 | 89 | 1009.1 |
| 20260506090032 | 18 | 182 | 17.7 | 22.5 | 1.22 | 21.03 | 21.03 | 89 | 1009.1 |
| 20260506085509 | 18 | 146 | 14.5 | 20.9 | 1.22 | 21.03 | 21.03 | 89 | 1008.5 |
| 20260506085013 | 17 | 182 | 27.4 | 37.0 | 1.22 | 21.03 | 21.03 | 89 | 1008.5 |
| 20260506084512 | 17 | 138 | 8.0 | 11.3 | 1.22 | 21.03 | 21.03 | 90 | 1009.1 |
| 20260506084013 | 17 | 176 | 27.4 | 35.4 | 0.71 | 20.52 | 20.52 | 89 | 1008.8 |
| 20260506083509 | 17 | 204 | 17.7 | 25.7 | 0.25 | 20.07 | 20.07 | 90 | 1008.8 |
| 20260506083024 | 17 | 123 | 19.3 | 25.7 | 0.20 | 20.02 | 20.02 | 89 | 1008.5 |
| 20260506082510 | 18 | 22 | 9.7 | 20.9 | 0.20 | 20.02 | 20.02 | 89 | 1008.5 |
| 20260506082013 | 18 | 245 | 9.7 | 19.3 | 0.20 | 20.02 | 20.02 | 89 | 1008.5 |
| 20260506081512 | 18 | 139 | 9.7 | 12.9 | 0.20 | 20.02 | 20.02 | 89 | 1008.1 |
| 20260506081013 | 17 | 171 | 20.9 | 30.6 | 0.18 | 19.99 | 19.99 | 89 | 1008.5 |
| 20260506080509 | 17 | 157 | 17.7 | 25.7 | 0.00 | 19.81 | 19.81 | 90 | 1008.1 |
| 20260506073510 | 17 | 256 | 12.9 | 17.7 | 1.91 | 19.33 | 19.33 | 90 | 1008.5 |
| 20260506073024 | 17 | 15 | 43.5 | 51.5 | 1.85 | 19.30 | 19.30 | 90 | 1008.5 |
| 20260506072509 | 17 | 178 | 33.8 | 38.6 | 0.71 | 18.16 | 18.16 | 90 | 1008.5 |
| 20260506072013 | 17 | 139 | 33.8 | 38.6 | 0.53 | 17.96 | 17.96 | 90 | 1008.5 |
| 20260506071513 | 17 | 172 | 20.9 | 25.7 | 0.36 | 17.78 | 17.78 | 90 | 1008.5 |
| 20260506071014 | 17 | 223 | 19.3 | 27.4 | 0.30 | 17.73 | 17.73 | 90 | 1008.1 |
| 20260506070510 | 17 | 199 | 17.7 | 20.9 | 0.13 | 17.55 | 17.55 | 90 | 1008.1 |
| 20260506062509 | 17 | 167 | 11.3 | 19.3 | 0.00 | 16.99 | 16.99 | 88 | 1008.5 |
| 20260506062013 | 17 | 151 | 14.5 | 17.7 | 0.00 | 16.99 | 16.99 | 88 | 1008.8 |
| 20260506061513 | 17 | 122 | 19.3 | 25.7 | 0.00 | 16.99 | 16.99 | 88 | 1008.5 |
| 20260506061014 | 17 | 172 | 17.7 | 24.1 | 0.00 | 16.99 | 16.99 | 88 | 1008.8 |
| 20260506060510 | 17 | 139 | 20.9 | 27.4 | 0.00 | 16.99 | 16.99 | 88 | 1008.5 |